Location: El Conde
(10.2895°N, 67.2409°W)
Time: 18:39:26
(UTC+00:00)

Cosmos 1953 Rocket - Pass Details

Date: 19 May 2024
Orbit: 601 x 631 km, 82.5° (Epoch: 11 June)

Event Time Altitude Azimuth Distance (km) Brightness Sun altitude
Rises 23:44:09 0° 9° (N) 2,868 7.2 -14.5°
Reaches altitude 10° 23:46:30 10° 17° (NNE) 1,969 6.2 -15.0°
Maximum altitude 23:50:32 37° 85° (E) 962 4.1 -15.9°
Enters shadow 23:52:00 29° 126° (SE) 1,149 4.4 -16.2°
